Regional Weather Roundup
Issued by NWS Green Bay, WI

Home | Current Version | Previous Version | Text Only | Print | Product List | Glossary On
Versions: 1 2 3 4 5 6 7 8 9 10 11 12 13 14 15 16 17 18 19 20 21 22 23 24 25 26 27 28 29 30 31 32 33 34 35 36 37 38 39 40 41 42 43 44 45 46 47 48 49 50
000
ASUS43 KGRB 020610
RWRGRB

NORTH-CENTRAL AND NORTHEAST WISCONSIN REGIONAL WEATHER ROUNDUP
NATIONAL WEATHER SERVICE GREEN BAY WI
100 AM CDT TUE SEP 02 2014

WIZ005-009-010>012-018-019-020700-
NORTH CENTRAL WISCONSIN

CITY           SKY/WX    TMP DP  RH WIND       PRES   REMARKS
IRONWOOD       NOT AVBL
MANITOWISH WTR   N/A     51  51 100 CALM      29.80R
ARBOR VITAE      N/A     57  54  90 CALM      29.81S
EAGLE RIVER      N/A     52  52 100 CALM      29.81R
LAND O LAKES     N/A     48  48 100 CALM      29.82R FOG
RHINELANDER      N/A     52  51  97 W5        29.83R
PHILLIPS         N/A     52  51  97 CALM      29.81S
ANTIGO           N/A     53  53  99 CALM      29.84S
TOMAHAWK         N/A     49  48  96 CALM      29.83R
MERRILL          N/A     52  52 100 CALM      29.84R
$$

WIZ013-073-020700-
NORTHEAST WISCONSIN

CITY           SKY/WX    TMP DP  RH WIND       PRES   REMARKS
IRON MOUNTAIN    N/A     56  54  93 CALM      29.78R
MARINETTE        N/A     61  55  82 W3        29.79R
OCONTO           N/A     58  58 100 W3        29.81R
$$

WIZ017-030-035>037-045-020700-
CENTRAL WISCONSIN

CITY           SKY/WX    TMP DP  RH WIND       PRES   REMARKS
MEDFORD          N/A     55  53  94 S3        29.84R
WAUSAU           N/A     57  55  93 CALM      29.83R
MOSINEE          N/A     55  55 100 CALM      29.86R
MARSHFIELD       N/A     59  55  87 W7        29.85R
WISC RAPIDS      N/A     57  56  96 CALM      29.87R FOG
STEVENS POINT    N/A     55  54  97 S3        29.86R
WAUPACA          N/A     60  59  95 CALM      29.85R
SHAWANO          N/A     62  57  84 W5        29.83R
CLINTONVILLE     N/A     59  55  88 W5        29.83R
$$

WIZ038-039-048-051-020700-
FOX VALLEY

CITY           SKY/WX    TMP DP  RH WIND       PRES   REMARKS
NWS GREEN BAY    N/A     60  58  92 W6        29.82R
APPLETON         N/A     61  61 100 W5        29.84S
OSHKOSH          N/A     64  61  90 W3        29.84R
FOND DU LAC      N/A     63  60  90 W6        29.84S
$$

WIZ022-050-052-020700-
EAST CENTRAL WISCONSIN

CITY           SKY/WX    TMP DP  RH WIND       PRES   REMARKS
STURGEON BAY     N/A     63  57  82 W5        29.81R
MANITOWOC        N/A     65  63  93 W3        29.82R
SHEBOYGAN        N/A     61  60  97 W5        29.83R
$$

LMZ563-521-522-541>543-020700-
LAKESHORE

STATION/POSITION TIME  TEMP    WIND        PRES    VSBY  WAVE
                       AIR SEA DIR/SP/G                  HT/PER
                 (UTC) (F)     (DEG/KT/KT) (MB)    (MI)  (FT/S)
SHEBOYGAN LKSHOR 0600   65 51  250/  7/  8 1010.1R
KEWAUNEE LKSHORE 0600   63     300/  4/  6 1008.6S
NORTHPORT PIER   0600   64     250/  4/  6 1008.5S
N MID LAKE BUOY  0600   66 65  230/  6/  6 1008.1R         2/ 6
S GREEN BAY BUOY 0500   69     VRB 12/ 16  1010.1R
CHAMBERS ISLAND  0600   64     220/  3/  8 1008.8R
MENOMINEE LKSHOR 0600   63     250/  7/  9 1009.6R
$$


USA.gov is the U.S. government's official web portal to all federal, state and local government web resources and services.